Location: Bouchavesnes-Bergen
(49.9859°N, 2.9203°E)
Time: 04:55:09
(UTC+00:00)

Cosmos 2333 Rocket - Visible Passes

Search period start: 13 June 2021 00:00
Search period end: 23 June 2021 00:00
Orbit: 839 x 863 km, 70.8° (Epoch: 12 June)

Date Brightness Start Highest point End Pass type
(mag) Time Alt. Az. Time Alt. Az. Time Alt. Az.
13 Jun 4.6 01:28:22 10° WNW 01:32:13 18° NNW 01:36:04 10° N visible
13 Jun 3.3 21:47:25 16° SSE 21:50:37 26° ESE 21:55:16 10° NE visible
13 Jun 2.6 23:29:21 13° SW 23:34:29 63° WNW 23:40:12 10° NNE visible
14 Jun 4.6 01:16:07 10° WNW 01:19:58 18° NNW 01:23:48 10° N visible
14 Jun 3.3 21:34:43 14° SSE 21:38:21 26° ESE 21:43:01 10° NE visible
14 Jun 2.6 23:16:40 11° SW 23:22:13 63° WNW 23:27:56 10° NNE visible
15 Jun 4.6 01:03:51 10° WNW 01:07:41 18° NNW 01:11:32 10° N visible
15 Jun 3.3 21:21:56 12° SSE 21:26:05 26° ESE 21:30:44 10° NE visible
15 Jun 2.6 23:04:15 10° SW 23:09:57 63° WNW 23:15:40 10° NNE visible
16 Jun 4.7 00:51:35 10° WNW 00:55:26 18° NNW 00:59:16 10° N visible
16 Jun 3.3 21:09:10 10° SSE 21:13:49 26° ESE 21:18:29 10° NE visible
16 Jun 2.7 22:51:59 10° SW 22:57:41 63° WNW 23:03:24 10° NNE visible
17 Jun 4.7 00:39:19 10° WNW 00:43:10 18° NNW 00:46:59 10° N visible
17 Jun 3.3 20:56:54 10° SSE 21:01:34 26° ESE 21:06:13 10° NE visible
17 Jun 2.7 22:39:43 10° SW 22:45:25 63° WNW 22:51:08 10° NNE visible
18 Jun 4.7 00:27:04 10° WNW 00:30:54 18° NNW 00:34:43 10° N visible
18 Jun 3.3 20:44:38 10° SSE 20:49:18 26° ESE 20:53:56 10° NE visible
18 Jun 2.7 22:27:28 10° SW 22:33:10 63° WNW 22:38:52 10° NNE visible
19 Jun 4.8 00:14:48 10° WNW 00:18:38 18° NNW 00:22:28 10° N visible
19 Jun 2.7 22:15:12 10° SW 22:20:53 63° WNW 22:26:36 10° NNE visible
20 Jun 4.8 00:02:32 10° WNW 00:06:22 18° NNW 00:10:12 10° N visible
20 Jun 2.7 22:02:56 10° SW 22:08:38 63° WNW 22:14:20 10° NNE visible
20 Jun 4.8 23:50:16 10° WNW 23:54:06 18° NNW 23:57:56 10° N visible
21 Jun 2.8 21:50:40 10° SW 21:56:22 63° WNW 22:02:04 10° NNE visible
21 Jun 4.9 23:38:01 10° WNW 23:41:50 18° NNW 23:45:40 10° N visible
22 Jun 2.8 21:38:24 10° SW 21:44:06 63° NW 21:49:48 10° NNE visible
22 Jun 4.9 23:25:45 10° WNW 23:29:35 18° NNW 23:33:24 10° N visible
